Погода в Чагыле

Погода в Чагыле : погода сейчас, прогноз погоды и архив. Всё, что Вы хотите узнать о погоде в Чагыле!

Хотите узнать прогноз погоды в Чагыле? Тогда Вам сюда: Погода в Чагыле

Поиск расширенной информации на нашем сайте:

Другие новости

Новости СМИ2

Главная страница сайта

Новости сайта

03.07.2017

Напоминаем, что на нашем специализированном сайте Метеоцентр.Азия вы можете получить высокодетализированные автоматические прогнозы погоды по пунктам России, СНГ и мира в авиационном формате (включающие направление и скорость ветра, видимость, явления погоды, количество и форму облачности, нижнюю и верхнюю границу облачности).

Рекомендуем: ЭлектроКотлы и газовые Котлы: комбинированные котлы цена.

Погода в Чагыле - сегодня

Время (UTC), дата Ветер
(°,м/с) 
Видим.   Явления Облачность Т
(°С)
Тd
(°С)
f(%) Тe
(°С)
Pmin
(гПа)
dP
(гПа)
Po
(мм)
O2
(г/м3)
Тmin Tmax R s Состояние
почвы
03 17.02.18 070 (В) 20000 м    9/0 средняя 
[Ac trans]
-1.9 -6.8 69 -4  1033.1  -2.2  764  311           
06 17.02.18 070 (В) 20000 м    9/0 средняя 
[Ac trans]
+0.4 -2.9 78 -1  1031.8  -1.1  763  307  -1.9         
09 17.02.18 110 (В) 20000 м    8/0 средняя 
[Ac trans]
+6.3 -0.5 62 +4  1029.3  -2.2  761  300           
12 17.02.18 110 (В) 20000 м    8/0 средняя 
[Ac trans]
+8 -3 46 +6  1026.6  -2.5  759  298           
15 17.02.18 070 (В) 20000 м    8/0 средняя 
[Ac trans]
+6.7 -3.8 47 +6  1026.8  0.1  759  299    +8       
18 17.02.18 090 (В) 20000 м    ясно 
+3.3 -7.5 45 +2  1027.2  0.2  760  303    +8       
21 17.02.18 090 (В) 20000 м    ясно 
+1.6 -9.4 44 1027.6  0.3  760  305           
00 18.02.18 070 (В) 20000 м    ясно 
-0.5 -11.9 42 -4  1025.1  -2.5  758  307           
03 18.02.18 070 (В) 20000 м    ясно 
-0.9 -10.6 48 -3  1024.4  -0.7  757  307           
06 18.02.18 070 (В) 20000 м    ясно 
+0.6 -11.1 41 -2  1024.4  757  306  -0.9         
09 18.02.18 070 (В) 20000 м    6/0 верхняя 
[Ci ing]
+6.8 -7 37 +4  1022.4  -1.6  756  298           
12 18.02.18 070 (В) 20000 м    8/0 верхняя 
[Ci ing]
+9.8 -7.1 30 +8  1017.9  -4.3  753  294           
15 18.02.18 070 (В) 20000 м    10/10 600 м кучево-дожд. 
[Cb cap]
+8.2 -11.2 24 +6  1016.9  -1.1  752  295    +9.8       
18 18.02.18 070 (В) 20000 м    10/10 600 м кучево-дожд. 
[Cb cap]
+4.3 -13.3 26 +2  1015.6  -1.2  751  299    +9.8       
21 18.02.18 070 (В) 20000 м    10/10 600 м кучево-дожд. 
[Cb cap]
+4.1 -12.4 29 +2  1015  -0.9  751  299           
00 19.02.18 070 (В) 20000 м    10/10 600 м кучево-дожд. 
[Cb cap]
+2.3 -8.7 44 +1  1014.8  -0.3  750  301           
03 19.02.18 070 (В) 10 км  слаб. ливневой дождь  10/10 600 м кучево-дожд. 
[Cb cap]
+0.8 -0.5 91 1015.3  0.5  751  302         
09 19.02.18 тихо ()   20000 м    10/10 600 м кучево-дожд. 
[Cb cap]
+2.9 +1.1 88 +3  1015.8  -0.3  751  299           
12 19.02.18 тихо ()   20000 м    10/10 600 м кучево-дожд. 
[Cb cap]
+5.8 +3.9 88 +6  1015.7  751  296           
21 19.02.18 270 (З) 20000 м    10/10 600 м кучево-дожд. 
[Cb cap]
+1.8 -0.4 85 +1  1018  -0.9  753  301           
00 20.02.18 270 (З) 20000 м    10/10 600 м кучево-дожд. 
[Cb cap]
+1.4 -0.8 85 -1  1017.7  -0.3  752  302           
03 20.02.18 тихо ()   20000 м    10/10 600 м кучево-дожд. 
[Cb cap]
+2.8 +1.8 93 +3  1018.2  0.6  753  300           
06 20.02.18 250 (З) 20000 м    10/10 600 м кучево-дожд. 
[Cb cap]
+4 +1.4 83 +3  1018.9  0.7  753  299  +1.2         
09 20.02.18 250 (З) 20000 м    10/10 600 м кучево-дожд. 
[Cb cap]
+5.4 +3 84 +3  1018.8  753  297           
12 20.02.18 270 (З) 20000 м    10/10 600 м кучево-дожд. 
[Cb cap]
+4.1 +2.1 87 +2  1018.9  753  299           
Время (UTC), дата Ветер
(°,м/с) 
Видим.   Явления Облачность Т
(°С)
Тd
(°С)
f(%) Тe
(°С)
Pmin
(гПа)
dP
(гПа)
Po
(мм)
O2
(г/м3)
Тmin Tmax R s Состояние
почвы

Для получения пояснительной информации подведите курсор к названию столбца.

ПОГОДА в Чагыле - архив

Всё, что Вы хотите узнать о погоде в Чагыле - удобно и подробно!

Выберите нужную дату (начиная с 1 января 2015* года) и нажмите кнопку "Найти".
Будут отображены архивные сводки погоды по пункту Чагыл, начиная с указанной даты.


Отображать данные в формате CSV (для использования в таблицах Excel)


Внимание! Наш архив погоды предназначен исключительно для личного некоммерческого использования в познавательных целях. Если Вам необходимы официальные справки о состоянии погоды (для производственных, юридических, коммерческих и т.п. целей), обращайтесь в органы Росгидромета.

*Примечание: данная дата относится к архиву по метеостанциям СССР (Россия, СНГ, Балтия).
Архив по метеостанциям Зарубежной Европы и Азии (кроме Китая) хранится 10 дней, по другим регионам земного шара (Китай, Африка, Америка, Австралия, Океания) - 1 день.

Чагыл - район местоположения метеостанции


Название, широта, долгота, высота метеостанции:
Чагыл 40.8°ш. 55.3°д. 115 м над ур. моря [Туркменистан]

Дополнительная информация

В oтличие oт бoльшинства пoгoдных сайтoв мы публикуем пoдрoбную метеoинфoрмацию в детальнoм прoфессиoнальнoм фoрмате.

Характеристики температуры и влажнoсти вoздуха измеряются на высoте 2 м в тени вдали oт зданий и деревьев.
Скoрoсть ветра измеряется на высoте 10 м (на урoвне рoста челoвека скoрoсть ветра ниже в 1.5-2 раза). Если метеoстанция нахoдится в гoрoде или в лесу, тo скoрoсть ветра занижена на 2-4 м/с пo сравнению с oткрытым местoм. Скoрoсть ветра над акватoриями крупных рек и oзёр, а также на вершинах хoлмoв на 2-5 м/с выше, чем в oбычных услoвиях.
Атмoсфернoе давление в разных тoчках местнoсти мoжет значительнo oтличаться oт давления на метеoстанции, в зависимoсти oт услoвий рельефа (при пoдъёме на 10 м давление пoнижается примернo на 1 мм рт.ст.).